Theta_e
332 333 333 334 334 334 334 335 336 335 334 334 335 336 337 338 339 340 340 341 342 342 343 344 345 345 345 345 345 345 345 344 343 341 340 339 339 340 343 345 346 346 346 346 347 348 350 352 353 356 357 358 359 360 360 360 360 360 360 361 360 360 358
332 333 333 334 334 334 335 335 336 336 335 335 335 336 337 337 338 338 340 341 342 342 343 343 345 345 345 345 345 345 344 344 343 345 342 341 342 340 342 344 346 346 346 347 347 348 350 350 351 353 355 358 359 359 359 359 360 359 359 358 358 358 358
332 333 334 334 334 335 335 335 335 336 336 335 335 336 336 337 338 338 339 340 341 342 343 343 345 345 345 346 345 344 344 344 343 343 341 339 339 339 341 343 345 346 346 347 347 346 349 348 349 351 354 355 357 358 359 359 359 359 358 358 358 357 356
331 333 334 335 336 336 336 336 335 336 336 336 336 336 336 337 338 339 339 340 341 342 341 342 344 344 345 345 345 344 343 344 344 343 342 342 340 340 340 341 343 344 345 345 347 347 348 347 347 349 356 354 356 357 358 358 358 359 358 358 358 357 357
329 332 334 335 335 336 336 336 336 336 336 337 337 338 337 338 338 338 339 340 341 341 342 342 343 345 345 346 345 345 344 343 343 343 343 343 343 341 340 340 341 342 343 345 347 349 348 347 346 347 350 354 354 356 357 357 358 359 358 358 357 357 357
327 330 333 334 335 336 337 337 337 336 336 336 336 336 337 337 338 337 338 340 340 342 342 343 343 345 344 345 346 345 345 344 344 344 343 343 343 341 340 340 341 341 341 343 347 347 347 347 346 347 348 351 354 355 356 357 357 358 358 357 357 357 357
325 329 331 334 335 336 337 337 338 338 338 337 337 338 338 337 337 337 337 338 340 340 341 341 342 343 344 345 345 346 345 344 344 343 343 343 342 342 342 341 342 342 343 345 344 347 346 346 346 346 348 350 353 354 355 356 357 358 358 357 357 357 358
324 328 329 334 336 336 337 338 338 339 339 338 337 337 337 337 337 337 337 337 339 340 340 341 341 343 344 345 345 345 345 345 344 344 343 342 341 342 342 342 342 342 344 343 345 347 346 346 347 347 347 349 351 353 355 355 356 357 358 357 356 356 356
323 326 328 332 336 336 337 338 339 339 338 338 337 337 337 337 337 337 337 337 338 339 340 341 341 343 344 344 344 344 345 345 345 344 343 341 341 340 341 342 342 343 342 342 344 348 348 347 347 348 347 348 350 352 354 355 356 357 357 357 357 356 356
321 322 326 328 334 336 337 338 339 339 339 338 337 337 337 337 337 338 338 337 337 338 339 341 341 342 343 344 344 344 344 344 345 344 343 342 341 340 340 341 342 345 342 342 342 346 349 349 348 348 348 347 349 351 353 354 355 356 357 357 357 357 357
320 322 323 324 327 331 336 338 338 338 339 339 338 338 338 337 337 337 338 338 337 338 339 341 342 342 342 343 343 344 344 343 343 343 343 343 342 341 340 340 341 343 344 343 342 343 346 350 350 348 348 348 348 349 351 353 354 355 355 357 357 357 357
319 320 321 323 324 326 329 333 336 338 340 340 339 338 338 338 338 337 338 338 339 338 339 340 341 342 341 342 342 343 344 344 343 343 343 343 343 343 342 341 341 341 343 344 343 343 343 346 348 348 348 348 349 349 350 352 354 354 355 356 357 357 357
319 318 320 321 323 324 326 328 331 335 337 339 339 339 339 338 338 338 338 339 339 340 340 340 341 342 341 342 342 343 343 344 344 344 343 344 344 344 344 343 342 341 341 344 344 344 343 343 346 349 348 348 349 349 350 351 353 353 354 355 356 357 357
322 318 319 321 322 323 323 325 328 331 335 338 340 341 339 339 339 339 339 338 339 340 340 340 341 341 342 342 342 343 343 344 345 345 345 345 346 345 344 344 343 343 343 343 343 343 344 344 344 346 348 348 348 348 350 351 352 353 354 355 355 356 356
317 317 318 319 320 322 323 324 326 328 331 335 338 340 342 341 339 340 340 340 340 341 341 342 341 341 341 342 342 343 345 346 346 347 347 347 347 346 346 345 345 345 344 344 344 344 344 345 345 345 346 348 348 348 348 349 350 352 353 354 355 356 356
316 317 318 319 320 321 323 323 325 327 329 332 334 337 340 342 344 340 340 340 340 341 342 343 342 341 341 341 343 344 346 347 348 348 348 347 347 347 347 347 347 345 345 344 344 345 346 346 347 346 346 347 348 349 348 348 349 348 342 344 353 355 355
316 317 317 319 319 321 322 323 324 326 328 330 332 335 337 339 342 344 343 341 341 342 343 343 343 343 342 342 344 345 346 347 348 348 348 348 348 348 348 348 348 347 346 346 345 345 346 346 346 346 347 347 347 348 349 349 349 340 333 335 339 351 354
315 316 319 319 319 320 321 322 324 325 327 329 332 334 335 337 339 342 343 345 344 343 344 344 344 343 343 344 345 346 346 347 348 348 348 349 349 349 349 349 348 348 347 346 345 346 346 345 345 346 347 347 347 348 349 350 343 333 331 332 333 341 354
314 316 318 319 319 319 320 322 324 325 326 329 331 333 336 338 338 339 341 345 345 348 346 345 345 345 345 345 346 346 347 348 348 348 349 349 350 350 350 349 349 348 347 346 347 347 346 345 345 346 347 347 347 347 348 350 339 331 330 331 331 332 344
315 316 316 318 319 319 320 322 324 326 328 330 332 334 336 338 338 339 343 345 347 346 349 347 347 346 346 347 347 347 348 348 348 348 349 350 350 350 350 349 349 349 349 349 349 347 346 346 346 346 347 347 347 348 348 349 340 330 327 328 328 330 336
314 315 316 316 318 319 320 321 323 325 327 330 332 333 333 334 337 340 341 344 347 346 347 350 348 348 348 348 348 349 349 349 349 349 350 350 351 350 350 350 350 350 350 349 348 348 347 347 346 347 347 347 348 348 348 349 336 327 325 324 324 327 332
313 314 315 316 317 319 320 321 323 324 326 332 332 331 332 333 336 339 340 344 348 347 346 346 350 350 350 350 350 350 351 350 350 350 351 351 351 351 351 351 350 350 350 350 350 350 349 350 349 348 348 348 349 348 348 349 332 326 324 323 323 325 338
314 315 316 318 318 320 323 323 324 326 328 330 330 330 330 332 335 338 340 342 345 348 347 346 346 347 350 354 353 353 353 353 352 352 352 353 352 351 351 351 351 352 353 351 351 350 349 349 349 350 350 350 350 349 349 350 337 324 322 321 321 325 342
316 316 316 318 320 320 322 324 325 327 328 329 328 329 329 331 335 336 339 341 343 342 350 347 347 348 350 350 352 354 356 356 355 354 354 353 352 351 351 351 351 351 350 350 351 350 350 350 350 351 351 350 350 350 350 350 342 324 319 319 319 329 343
316 316 317 317 319 320 321 323 325 325 326 327 326 327 328 329 331 334 337 338 339 341 342 340 343 345 347 349 351 353 354 355 355 355 354 353 352 351 350 350 350 351 350 349 348 349 352 352 351 351 352 351 351 350 350 351 344 324 319 318 317 328 345
313 316 317 318 318 322 323 325 325 324 323 324 324 326 327 327 327 330 333 335 338 338 336 336 338 340 344 345 350 352 352 353 354 353 353 352 352 352 351 352 352 351 350 350 349 349 350 351 352 351 351 352 352 352 351 351 352 344 319 317 315 320 345
314 316 317 318 317 322 323 323 323 323 323 324 325 326 324 324 324 326 328 331 332 333 333 335 337 338 340 343 345 347 352 352 352 352 352 353 352 352 353 353 353 353 351 349 350 351 351 351 351 351 351 352 352 353 353 353 352 350 321 316 314 316 328
312 313 316 318 319 321 322 322 323 323 324 323 322 325 323 323 322 323 325 327 328 328 329 332 334 337 338 340 342 346 349 353 355 353 352 353 353 352 353 355 356 355 354 353 352 352 351 352 351 351 351 352 352 353 353 352 343 353 328 317 313 313 318
310 311 313 315 316 318 320 320 321 322 322 323 322 324 322 322 322 322 324 324 325 326 328 330 333 335 337 339 341 345 349 352 355 357 355 353 353 353 353 355 356 356 356 355 354 352 351 351 351 351 350 351 352 353 354 355 352 334 345 321 313 312 313
310 311 312 314 316 318 320 320 321 322 323 322 323 323 322 322 321 322 322 323 324 325 327 329 331 334 335 338 341 344 347 350 352 355 358 358 356 355 354 356 357 356 356 355 354 352 351 351 351 351 350 349 350 352 353 355 355 339 330 334 315 312 311
309 310 311 313 315 318 319 319 320 321 322 323 322 323 322 322 321 321 321 322 323 325 326 327 329 331 334 336 339 342 345 347 349 351 354 358 359 357 356 356 357 355 356 355 354 353 352 351 351 350 350 349 349 350 352 354 354 355 339 326 321 314 312
309 310 311 313 314 316 319 320 319 319 321 321 322 322 323 322 321 319 320 322 323 323 325 327 328 330 333 336 339 340 342 344 346 350 354 356 359 359 359 358 357 356 356 355 354 353 352 352 351 350 350 350 350 351 352 353 354 354 353 335 328 320 314
309 310 310 311 314 318 318 318 317 317 319 320 321 321 320 320 320 321 321 321 322 323 324 326 327 330 332 335 337 339 341 342 346 349 352 355 357 359 360 359 358 357 355 355 354 353 352 352 351 351 350 350 350 351 352 352 353 353 354 352 346 340 331
308 309 311 312 313 316 317 317 316 316 318 319 320 320 320 320 320 321 321 321 321 322 323 324 327 328 331 334 337 337 339 341 345 347 347 350 354 356 358 358 358 357 355 354 354 353 352 352 351 350 350 350 351 351 351 351 352 353 353 353 350 346 343
308 309 310 311 313 316 315 317 317 317 318 320 320 318 319 319 320 320 320 319 320 321 321 323 326 328 330 334 335 334 336 338 340 342 344 347 352 356 358 358 357 357 357 359 358 357 355 354 353 353 354 353 352 351 350 350 351 352 336 351 334 343 346
307 308 310 312 313 314 315 318 318 317 319 320 318 317 318 318 319 320 319 319 319 319 319 322 324 327 330 331 332 332 333 334 335 338 341 344 346 352 356 349 334 346 358 357 342 335 331 331 353 356 355 354 355 355 352 351 353 334 323 321 318 318 323
306 307 309 311 312 312 314 316 318 319 320 319 317 317 317 317 317 318 318 318 318 318 319 319 322 325 325 327 328 329 331 332 334 336 339 343 345 348 352 356 353 318 319 332 340 329 320 315 318 322 331 350 355 349 332 332 329 325 316 314 312 313 313
307 308 310 312 312 313 314 316 318 318 318 317 316 316 316 316 316 317 317 316 317 318 318 318 320 322 322 323 326 329 331 332 331 332 332 335 340 343 348 354 354 356 328 316 317 319 314 310 310 311 312 316 330 346 354 329 317 317 312 312 311 311 310
Wind_Speed
12 13 14 14 15 16 16 16 17 15 15 15 15 16 16 15 14 14 14 14 16 14 13 13 14 12 14 12 12 11 10 9 7 8 8 8 7 7 7 6 7 6 6 7 7 7 6 5 6 6 5 5 4 4 4 4 4 3 4 4 3 4 4
13 14 14 15 15 16 16 16 16 15 15 15 15 17 16 16 15 15 15 15 16 16 15 14 14 13 14 13 11 11 11 11 10 8 6 6 5 6 7 7 7 7 7 7 6 5 6 6 6 6 6 6 5 5 5 4 4 4 4 4 4 3 3
13 14 14 15 15 16 16 15 15 16 16 15 15 16 17 17 16 16 15 14 15 14 13 15 15 15 13 13 12 12 12 11 10 9 9 9 9 9 7 7 7 7 7 6 5 6 6 6 6 6 7 6 6 6 5 5 5 5 5 4 4 4 3
8 13 15 16 17 16 17 17 18 16 16 17 18 19 18 18 16 15 16 16 16 15 15 14 14 14 13 13 12 12 12 11 11 11 11 9 9 7 7 6 6 6 6 8 7 6 5 6 7 6 7 7 7 6 5 6 5 5 5 5 4 4 4
15 11 12 13 15 14 14 15 16 17 18 18 18 18 18 17 16 15 15 15 17 18 18 17 14 13 11 12 11 11 12 13 12 11 10 9 7 7 7 8 8 8 8 6 6 6 6 6 7 6 6 6 6 5 6 5 5 5 4 5 4 4 3
15 13 11 14 15 15 16 17 18 19 18 18 18 17 16 17 15 17 16 16 15 14 13 14 15 14 14 13 12 11 10 11 11 10 10 9 8 8 9 9 9 8 8 8 7 7 7 7 7 7 7 6 6 6 6 6 5 5 5 4 4 4 3
16 15 12 14 16 16 17 15 16 15 15 16 15 14 15 15 17 17 15 16 16 16 16 15 15 14 13 12 12 13 13 13 11 12 10 10 9 9 9 8 7 8 8 5 7 7 8 8 8 8 8 7 7 7 7 7 6 5 5 5 5 4 5
18 19 11 14 13 14 14 15 14 13 13 11 12 14 15 15 15 16 17 16 16 15 15 16 15 14 13 11 11 13 13 13 12 12 10 11 10 11 10 9 8 8 6 8 7 7 8 9 7 7 7 7 7 7 6 6 6 5 5 6 5 5 4
21 18 20 12 10 8 10 12 12 12 14 14 15 15 16 15 15 16 17 16 15 16 16 16 15 14 13 12 12 13 13 12 11 11 12 12 11 11 11 9 9 8 8 8 7 7 7 8 8 7 7 7 7 7 7 7 7 6 6 6 7 7 6
20 22 20 20 16 3 6 5 6 9 12 15 14 13 15 15 15 15 15 16 16 17 17 16 14 14 13 12 13 13 12 12 11 12 12 12 12 13 12 11 9 8 9 9 7 7 7 7 7 7 7 8 7 7 8 7 7 7 7 8 7 7 7
17 20 20 22 19 18 15 5 4 8 8 10 11 12 12 13 15 15 15 15 16 16 16 15 13 13 14 14 14 13 13 13 12 12 13 13 11 12 11 11 9 8 10 9 9 8 8 7 7 7 7 8 9 8 8 9 8 8 7 7 7 7 7
16 15 19 20 20 21 17 12 14 11 4 7 8 10 9 11 13 14 14 15 15 15 14 15 13 14 14 14 14 13 14 13 13 13 14 14 12 12 12 11 11 10 9 9 10 9 8 9 7 8 9 9 9 9 9 9 8 9 9 8 7 7 6
12 14 15 15 16 16 18 19 18 14 17 6 8 8 8 10 10 11 11 13 14 13 14 14 13 14 14 14 15 13 13 14 14 13 13 13 13 11 11 11 10 10 11 10 10 10 8 8 9 9 10 10 10 9 10 10 9 9 9 9 8 8 8
16 18 18 16 18 19 18 17 16 18 15 15 13 3 7 8 9 11 10 12 12 13 13 12 13 13 14 13 13 13 14 14 13 13 13 11 10 11 11 11 11 11 10 9 10 10 10 10 10 9 9 10 10 11 9 10 9 9 9 9 8 8 8
15 16 16 18 17 16 17 16 16 17 16 15 14 15 13 4 7 9 9 10 11 13 14 13 13 14 14 14 14 14 13 12 11 11 11 11 10 11 11 11 11 10 10 9 10 9 10 10 10 10 10 10 10 10 9 9 10 9 9 9 9 9 9
14 14 15 15 13 14 14 15 15 15 16 15 16 16 13 12 11 4 10 11 12 12 12 12 13 13 13 14 14 13 12 12 11 11 11 11 12 11 11 11 10 10 11 11 11 10 10 9 10 9 10 10 10 10 9 9 8 11 16 14 11 10 9
13 13 13 13 13 15 13 14 14 16 17 16 16 15 12 11 10 10 6 7 11 12 12 12 12 13 13 14 12 12 11 11 11 11 12 12 11 10 11 12 10 10 11 11 11 11 10 10 10 10 10 11 10 10 9 8 9 16 17 18 18 12 9
12 13 12 13 13 13 14 15 15 15 15 15 16 13 13 13 11 10 9 9 6 11 12 13 13 14 14 14 12 12 12 12 11 11 12 11 12 12 11 11 11 11 11 11 11 11 10 11 11 11 11 10 10 10 9 10 13 17 18 18 19 17 11
12 12 11 12 13 14 13 13 13 13 14 13 13 14 13 11 11 11 11 10 8 7 10 13 14 13 13 13 13 13 12 11 11 12 11 12 12 11 10 10 11 11 11 13 12 10 10 12 12 11 11 11 12 11 12 11 14 17 19 19 19 20 15
10 10 11 11 10 12 12 11 11 10 11 10 12 13 13 11 9 9 10 8 7 6 6 11 11 12 13 13 13 13 13 13 13 13 13 12 11 11 11 11 12 12 11 11 10 11 12 12 12 12 11 12 12 12 11 11 14 18 19 19 19 19 16
12 12 12 12 13 11 11 12 13 13 14 13 14 13 13 12 11 10 11 11 9 6 6 6 11 11 12 13 13 12 12 13 14 14 14 13 13 12 12 12 11 11 11 9 11 12 12 12 12 12 12 12 11 11 11 11 17 17 19 19 20 20 15
12 12 12 11 12 11 11 12 12 13 13 12 12 11 12 11 12 10 10 11 9 8 4 4 4 8 11 12 12 13 14 14 14 13 13 13 13 13 13 11 11 10 10 10 10 10 10 10 11 12 13 13 13 11 13 12 17 18 19 20 19 19 10
11 11 10 10 10 11 9 9 11 11 11 12 12 12 12 12 11 9 8 10 10 9 6 3 4 4 2 4 8 12 13 13 14 13 13 12 13 14 15 15 15 12 7 7 9 9 10 12 11 11 11 12 13 14 14 14 16 18 19 19 20 13 8
8 9 10 10 9 10 10 9 9 10 11 13 13 12 12 13 12 11 8 8 9 12 8 8 7 3 1 2 1 2 6 10 12 13 13 13 14 14 13 14 14 15 14 13 10 11 11 11 11 11 11 13 13 14 13 13 15 17 18 19 18 16 11
9 9 10 10 10 10 11 11 10 11 10 11 13 14 14 15 15 12 10 10 8 7 8 10 9 8 8 5 3 5 5 5 8 11 12 13 13 12 11 11 11 11 12 15 15 15 13 12 11 10 10 12 12 16 16 13 14 16 18 19 19 17 11
10 11 10 11 10 9 9 9 11 10 10 9 10 11 13 13 13 12 9 8 8 8 8 7 9 10 7 7 5 3 4 5 8 9 10 12 12 11 11 10 8 9 11 11 12 12 13 14 11 12 11 11 12 12 12 13 13 13 19 19 20 21 13
9 9 10 10 10 11 9 8 7 8 10 8 8 8 9 10 11 11 10 9 8 7 6 8 8 8 7 6 6 5 4 6 6 8 8 9 11 11 11 11 12 12 12 11 11 12 13 14 13 12 13 12 12 12 12 12 13 14 18 19 20 21 18
10 10 9 7 9 8 8 9 10 9 9 9 9 9 9 9 10 10 10 9 8 9 9 9 8 8 8 8 7 7 5 5 6 9 9 10 10 11 13 12 13 12 13 11 11 14 15 14 13 13 12 12 12 12 13 13 17 13 15 19 20 21 23
12 12 11 11 10 9 9 8 10 10 9 8 9 8 9 10 10 11 11 10 10 11 11 10 9 9 9 9 8 7 7 6 7 7 8 10 13 14 14 13 13 13 12 12 12 13 14 14 13 12 12 12 11 11 11 11 12 18 15 17 20 21 23
11 10 11 10 9 8 8 8 7 9 10 8 8 7 8 9 9 10 12 11 11 11 11 11 10 9 9 9 9 8 8 7 8 8 8 10 12 14 15 13 13 12 12 12 12 12 12 12 11 12 11 12 11 11 10 10 11 13 19 16 20 21 24
11 11 11 11 11 10 8 8 8 9 10 8 7 7 7 7 9 13 13 13 13 12 11 10 10 10 9 8 8 8 8 8 7 8 9 9 10 12 14 15 13 12 12 11 12 12 12 12 11 12 12 12 12 12 10 10 10 10 14 20 19 22 23
9 10 10 11 11 10 8 8 8 8 9 9 7 6 5 7 6 10 12 12 12 12 12 10 10 9 9 9 8 8 9 10 11 10 9 10 9 11 12 13 12 12 11 11 12 12 12 12 11 12 12 12 12 11 10 10 10 12 10 11 16 16 21
9 10 10 12 12 11 9 8 7 7 9 10 8 7 5 6 7 7 10 12 12 12 12 11 10 9 9 9 9 9 8 9 9 10 10 9 9 10 10 11 11 12 11 11 11 11 12 13 11 11 11 12 11 10 9 10 11 10 10 9 8 8 10
10 10 10 10 10 11 10 8 8 8 8 8 8 7 7 5 5 7 9 11 11 12 12 11 9 8 9 10 8 6 7 9 12 12 10 10 9 9 10 11 11 11 12 12 13 12 13 12 12 13 13 11 11 11 10 11 11 10 11 10 8 9 9
10 10 11 11 11 10 11 9 8 8 8 8 6 7 8 7 5 5 9 11 12 12 12 11 10 9 9 8 7 6 5 7 9 10 10 10 10 9 10 10 11 12 12 12 12 12 12 12 13 14 13 12 12 11 12 11 11 12 12 14 16 14 10
12 11 11 10 10 10 11 11 9 9 8 7 4 6 7 7 6 5 7 9 10 12 12 13 11 10 8 8 7 6 7 9 10 11 10 10 10 10 9 11 14 11 11 11 14 19 19 16 14 13 11 10 11 12 13 12 14 17 18 19 18 19 20
13 12 11 11 11 11 11 11 10 8 8 6 4 5 6 7 6 6 7 8 9 11 12 12 11 8 7 9 9 9 8 8 10 11 10 10 9 9 9 8 9 13 16 16 13 15 19 18 19 14 11 12 11 11 17 18 14 11 14 16 17 19 19
13 13 12 12 12 11 11 11 10 9 8 5 4 5 5 5 5 5 7 8 9 9 10 11 10 9 8 8 7 8 8 7 8 9 10 10 9 10 10 8 8 9 13 15 12 7 7 12 15 16 15 15 14 11 9 14 16 14 15 17 18 19 19
Wind_Direction
208 204 204 203 201 201 198 197 194 194 192 191 191 191 191 189 189 187 189 190 194 195 194 190 191 190 194 197 195 194 194 190 190 193 192 196 192 184 185 191 189 193 186 193 200 198 199 186 194 205 207 207 207 206 204 188 179 180 180 182 182 187 203
203 205 206 204 205 203 202 198 194 194 192 191 190 191 191 190 188 190 191 190 193 194 191 192 193 195 195 197 194 194 192 193 193 194 190 189 187 190 188 187 189 195 196 201 191 191 182 192 189 199 204 203 205 200 206 197 189 181 176 181 193 204 199
204 206 205 205 206 203 201 198 197 196 193 191 190 190 192 192 190 189 187 189 193 196 193 194 194 195 196 196 193 196 196 194 193 193 191 194 195 193 190 185 191 195 201 192 190 191 187 185 194 198 199 203 202 200 200 201 195 184 180 180 194 205 205
258 214 206 208 208 206 200 198 196 195 195 192 191 191 191 192 189 188 189 187 189 192 194 197 196 198 197 194 197 196 197 199 197 197 200 196 194 190 183 192 191 192 184 200 197 188 186 185 192 201 203 204 205 198 195 203 194 185 180 178 194 206 214
320 265 225 210 211 209 205 202 199 196 195 195 194 191 190 189 186 188 190 191 191 193 193 191 193 197 198 197 198 197 198 198 200 201 201 196 187 177 191 198 196 195 204 195 182 183 183 186 196 198 206 204 204 197 201 196 197 187 180 180 188 192 216
320 296 236 214 209 208 207 206 202 197 195 193 192 190 189 186 187 190 190 190 194 196 193 192 194 193 196 197 198 200 200 203 202 202 199 194 183 185 196 202 197 201 200 202 184 190 185 190 192 195 196 198 195 196 198 195 197 187 183 179 189 185 197
332 312 252 221 210 206 205 208 206 201 200 196 191 189 185 185 188 190 189 192 192 190 191 194 197 195 200 194 199 197 198 200 200 203 200 196 189 192 198 197 199 204 208 185 195 185 186 195 199 197 201 197 200 200 203 204 200 190 182 184 190 191 193
350 348 301 231 221 209 205 204 202 199 202 196 190 189 187 188 187 188 190 193 192 192 194 193 193 196 197 197 199 199 200 201 200 201 199 199 196 200 198 194 196 197 190 197 205 186 192 198 198 197 196 197 205 207 207 207 206 190 184 192 192 193 184
2 358 2 328 234 219 215 207 203 197 188 198 198 190 188 186 188 191 191 191 192 192 196 194 195 195 193 194 196 202 203 201 200 198 200 201 202 205 203 199 197 184 188 199 199 192 196 200 200 196 193 199 202 204 207 210 207 195 195 207 203 198 195
5 6 2 6 357 298 210 216 213 199 194 196 196 191 189 189 191 191 191 192 190 194 195 193 194 193 194 195 200 200 199 201 202 199 201 203 205 207 207 204 200 187 191 192 185 185 197 196 199 194 193 200 202 202 208 206 207 199 203 208 205 207 206
12 8 10 10 9 7 7 354 225 212 211 202 196 196 191 191 192 191 192 190 192 195 193 193 191 191 194 195 199 198 200 203 201 201 203 206 206 208 205 205 200 196 197 187 186 188 183 189 187 193 194 200 201 204 205 209 204 206 208 211 209 211 209
11 13 15 11 12 12 6 4 7 347 243 200 207 198 194 197 194 194 192 192 192 191 191 193 190 194 193 196 198 200 200 202 202 204 205 206 207 207 205 204 203 199 201 195 196 189 184 186 181 192 200 204 205 204 208 207 205 210 214 211 207 210 210
8 17 15 13 14 11 12 13 5 2 3 314 203 193 198 193 198 199 194 193 192 192 191 189 190 191 194 196 200 200 202 201 203 204 206 206 208 207 205 204 203 201 203 199 200 195 189 187 189 196 198 204 202 203 206 206 205 209 214 215 213 212 211
15 16 13 15 15 12 12 6 5 8 1 8 356 299 194 181 191 193 193 196 193 191 189 189 190 192 195 196 200 202 204 204 202 204 206 207 206 207 207 207 207 208 207 202 203 203 201 194 194 197 198 204 203 207 204 205 204 207 211 213 211 209 213
18 17 10 13 11 9 7 5 7 3 6 4 7 12 359 325 195 183 192 191 193 192 193 188 188 193 194 196 200 204 204 202 202 203 203 204 203 206 208 207 208 207 206 205 208 208 209 206 200 196 201 206 207 208 204 203 206 205 206 207 210 211 214
13 13 13 9 3 7 5 5 3 4 5 6 8 6 4 7 354 274 194 192 191 192 193 184 192 192 195 199 203 203 200 200 200 201 200 201 202 204 205 207 207 206 208 209 209 210 208 208 205 201 200 203 207 208 205 208 208 208 205 204 206 208 213
6 7 8 8 5 0 1 3 4 5 6 3 2 360 1 356 350 353 316 210 191 193 190 187 190 193 195 201 201 199 197 197 201 199 200 203 203 202 203 205 204 206 209 211 210 211 209 205 206 207 205 204 202 206 207 209 211 208 204 206 208 206 210
358 359 358 7 359 356 359 2 5 3 358 357 355 355 359 353 352 351 355 341 281 203 187 188 191 193 196 198 196 195 195 198 198 199 203 201 204 203 203 202 203 207 209 210 212 212 209 210 211 210 209 208 207 208 209 214 213 206 205 205 207 207 209
355 351 0 358 359 0 354 358 358 354 353 351 350 351 349 347 348 348 342 333 321 291 201 193 193 194 196 197 194 195 194 194 195 200 201 203 204 204 200 202 206 209 210 213 213 209 209 215 212 213 212 212 212 214 214 218 212 207 206 206 206 207 209
352 350 350 356 358 358 347 347 348 347 347 341 348 346 344 340 334 339 332 327 321 323 245 195 195 192 195 194 195 194 193 193 194 197 201 200 201 200 202 202 208 210 211 215 212 212 215 215 215 214 212 214 215 218 219 219 215 206 206 206 206 206 205
347 353 348 347 347 353 350 341 344 343 343 350 349 346 344 339 343 339 345 342 341 335 333 242 196 193 193 194 196 194 195 195 196 199 198 197 196 197 202 205 210 211 211 210 212 214 215 215 214 215 214 215 215 218 221 222 216 206 205 206 204 205 200
342 345 347 345 335 341 344 342 339 338 336 337 340 347 339 333 333 335 342 338 341 339 340 357 281 210 192 194 195 197 197 196 199 201 202 199 195 194 196 199 205 214 217 220 222 221 220 221 219 217 216 215 215 217 225 225 215 208 206 204 205 198 194
337 335 337 335 337 331 330 332 332 333 337 334 342 344 338 328 326 327 341 342 341 335 338 13 53 34 356 235 212 202 198 197 197 199 200 198 199 200 197 193 193 196 177 230 243 234 225 223 219 219 216 214 215 218 224 228 218 207 206 204 201 186 191
326 333 333 330 331 328 331 331 331 336 342 335 335 341 334 328 327 322 328 339 349 343 350 10 13 360 141 132 81 268 225 205 199 199 198 197 203 209 214 209 200 184 179 188 215 242 242 234 231 223 219 217 217 215 220 226 221 205 206 204 193 185 192
321 325 330 332 329 330 334 331 335 338 342 340 336 340 340 333 332 323 328 337 341 344 7 352 350 351 353 334 243 192 193 206 209 203 201 203 206 204 211 222 221 204 185 189 192 208 231 236 235 230 224 221 220 219 220 226 224 205 205 203 191 189 199
322 322 325 328 325 329 326 328 330 340 342 342 338 337 338 334 328 324 328 328 332 17 2 346 339 331 322 330 321 264 219 207 207 211 210 211 212 206 207 207 219 226 209 200 198 203 207 224 227 228 226 221 221 220 217 224 228 211 204 200 192 190 194
312 310 313 317 321 326 325 333 331 327 326 332 332 339 334 327 323 321 324 331 337 10 350 332 326 317 320 312 310 309 266 220 216 222 221 217 214 212 214 210 209 213 215 205 204 205 210 214 219 222 228 223 222 222 219 221 224 221 201 201 191 192 193
312 315 308 304 314 318 324 327 328 328 328 341 333 337 329 326 328 323 324 329 335 341 331 321 314 315 317 312 307 300 287 270 234 216 218 221 218 217 218 215 209 211 212 209 205 207 211 213 217 222 225 227 225 223 224 220 218 224 209 199 193 191 195
313 313 314 317 319 323 322 325 325 323 328 328 332 331 326 331 334 329 322 327 332 330 322 314 312 314 314 310 304 298 290 282 269 250 223 214 217 219 223 215 210 210 210 210 209 209 212 214 215 219 225 228 226 224 222 221 219 217 217 199 194 193 198
302 304 310 304 302 303 312 311 314 317 319 326 332 326 324 335 337 329 325 325 330 322 316 312 309 308 304 301 298 297 295 291 288 276 259 231 215 218 224 220 211 207 205 207 209 211 213 216 214 219 224 226 228 225 220 217 221 213 214 206 195 196 199
298 300 300 303 303 305 307 305 314 314 311 320 322 316 326 332 342 333 327 328 327 319 311 306 305 302 296 293 298 301 301 298 288 279 272 260 232 217 217 219 211 207 206 203 209 211 215 217 212 216 220 223 225 225 220 216 216 221 210 208 199 200 201
296 296 296 299 301 302 299 302 305 303 301 307 313 318 326 325 338 332 321 319 319 314 306 303 301 299 299 302 304 306 306 303 300 287 274 265 249 231 219 216 209 210 205 203 210 211 215 216 215 219 220 225 226 223 220 215 218 223 214 203 206 204 205
288 290 293 295 295 300 299 300 298 296 302 305 313 316 326 332 332 325 322 321 318 309 304 303 299 298 298 300 305 309 311 305 297 301 299 285 261 239 228 216 211 210 206 205 207 212 216 219 215 220 220 225 226 222 217 217 220 220 219 200 194 190 197
282 286 287 283 287 291 289 281 281 289 296 302 307 314 313 314 333 330 321 321 319 313 307 303 303 299 296 294 297 302 312 309 301 299 297 292 276 246 228 217 211 208 207 202 207 208 215 215 215 218 218 220 217 218 216 219 220 217 215 206 187 196 187
275 274 278 285 285 285 284 277 277 281 287 293 298 307 308 312 329 340 328 325 321 316 312 308 306 304 294 295 297 301 322 310 304 299 296 296 293 262 236 222 212 214 214 215 210 207 208 208 215 217 218 216 215 212 220 223 222 222 206 206 199 192 190
272 270 272 271 273 275 277 273 267 273 279 282 285 297 302 312 324 344 340 328 321 317 314 314 308 303 305 307 301 328 334 319 307 300 295 296 300 295 263 239 228 216 217 224 216 216 216 211 216 215 211 215 218 211 212 212 218 218 199 202 198 198 198
272 272 268 270 275 274 270 269 267 268 275 280 290 290 302 315 324 339 338 325 315 316 314 312 305 307 314 315 323 334 323 310 303 300 300 300 303 300 286 266 254 242 231 227 221 214 220 222 230 236 225 214 225 220 222 230 235 216 200 200 200 201 204
263 264 264 266 264 263 263 262 264 266 273 283 292 286 290 310 322 333 332 325 320 317 314 312 307 309 313 313 300 296 291 297 301 308 311 312 311 306 305 281 256 253 248 240 238 250 238 234 236 236 235 235 227 221 229 229 227 212 196 199 200 202 203